Weather History for El Paso, TX

Change the Weather History Date:

Monday, April 28, 2014

  Actual Average Record
Temperature  
Mean Temperature 70 °F 68 °F  
Max Temperature 80 °F 82 °F 96 °F (1992)
Min Temperature 59 °F 55 °F 35 °F (1989)
Degree Days  
Heating Degree Days 0 1  
Month to date heating degree days 51 90  
Since 1 July heating degree days 2016 2463  
Cooling Degree Days 5 5  
Month to date cooling degree days 101 72  
Year to date cooling degree days 126 82  
Growing Degree Days 20 (Base 50)    
Moisture  
Dew Point 19 °F    
Average Humidity 15    
Maximum Humidity 20    
Minimum Humidity 9    
Precipitation  
Precipitation 0.00 in 0.00 in 0.73 in (1931)
Month to date precipitation 0.45 0.21  
Year to date precipitation 0.63 1.33  
Snow  
Snow 0.00 in - - ()
Month to date snowfall 0.0  
Since 1 July snowfall T  
Snow Depth 0.00 in    
Sea Level Pressure  
Sea Level Pressure 29.72 in    
Wind  
Wind Speed 20 mph (WNW)    
Max Wind Speed 37 mph    
Max Gust Speed 47 mph    
Visibility 10 miles    
Events      
T = Trace of Precipitation, MM = Missing Value Source: NWS Daily Summary

Daily Weather History Graph

Daily Weather History Graph

Search for Another Location

Airport:

Trip Planner

Search our weather history database for the weather conditions in past years. The results will help you decide how hot, cold, wet, or windy it might be!

Date:

Astronomy

Apr. 28, 2014 Rise Set
Actual Time 6:22 AM MDT 7:43 PM MDT
Civil Twilight 5:57 AM MDT 8:09 PM MDT
Nautical Twilight 5:26 AM MDT 8:40 PM MDT
Astronomical Twilight 4:54 AM MDT 9:12 PM MDT
Moon 5:59 AM MDT (4/28) 7:26 PM MDT (4/28)
Length of Visible Light 14h 12m
Length of Day
13h 20m
Waning Crescent, 0% of the Moon is Illuminated
Apr 28
Waning Crescent
Apr 29
New
May 6
First Quarter
May 14
Full
May 21
Last Quarter

Hourly Weather History & Observations

Time (MDT) Temp. Dew Point Humidity Pressure Visibility Wind Dir Wind Speed Gust Speed Precip Events Conditions
12:51 AM 63.0 °F 19.9 °F 19% 29.73 in 10.0 mi WNW 15.0 mph 24.2 mph N/A   Scattered Clouds
1:51 AM 63.0 °F 19.0 °F 18% 29.73 in 10.0 mi WNW 16.1 mph 25.3 mph N/A   Partly Cloudy
2:51 AM 62.1 °F 19.0 °F 19% 29.71 in 10.0 mi WNW 20.7 mph 32.2 mph N/A   Clear
3:51 AM 61.0 °F 19.9 °F 21% 29.72 in 10.0 mi WNW 26.5 mph 35.7 mph N/A   Clear
4:51 AM 60.1 °F 19.9 °F 21% 29.74 in 10.0 mi NW 13.8 mph 25.3 mph N/A   Clear
5:51 AM 60.1 °F 19.9 °F 21% 29.74 in 10.0 mi NNW 11.5 mph 23.0 mph N/A   Partly Cloudy
6:51 AM 60.1 °F 19.9 °F 21% 29.76 in 10.0 mi NW 20.7 mph 25.3 mph N/A   Clear
7:51 AM 62.6 °F 19.4 °F 19% 29.94 in 10.0 mi NW 13.8 mph 20.7 mph N/A   Clear
8:51 AM 64.9 °F 19.9 °F 18% 29.79 in 10.0 mi WNW 9.2 mph 23.0 mph N/A   Clear
9:51 AM 66.9 °F 19.0 °F 16% 29.77 in 10.0 mi WNW 12.7 mph - N/A   Clear
10:51 AM 70.0 °F 17.1 °F 13% 29.76 in 10.0 mi West 19.6 mph 28.8 mph N/A   Partly Cloudy
11:51 AM 71.1 °F 18.0 °F 13% 29.74 in 10.0 mi West 21.9 mph 27.6 mph N/A   Partly Cloudy
12:51 PM 73.0 °F 18.0 °F 12% 29.72 in 10.0 mi WNW 17.3 mph 25.3 mph N/A   Clear
1:51 PM 75.9 °F 19.0 °F 12% 29.68 in 10.0 mi NW 16.1 mph 25.3 mph N/A   Clear
2:51 PM 78.1 °F 16.0 °F 10% 29.65 in 10.0 mi West 24.2 mph 36.8 mph N/A   Clear
3:51 PM 79.0 °F 18.0 °F 10% 29.61 in 10.0 mi West 25.3 mph 38.0 mph N/A   Clear
4:51 PM 78.8 °F 19.4 °F 11% 29.78 in 10.0 mi West 27.6 mph 41.4 mph N/A   Clear
5:51 PM 79.0 °F 19.9 °F 11% 29.60 in 10.0 mi West 36.8 mph 44.9 mph N/A   Clear
6:51 PM 77.0 °F 19.9 °F 12% 29.60 in 10.0 mi WNW 25.3 mph 35.7 mph N/A   Partly Cloudy
7:51 PM 75.0 °F 18.0 °F 12% 29.62 in 10.0 mi WNW 27.6 mph 42.6 mph N/A   Partly Cloudy
8:51 PM 73.4 °F 19.4 °F 13% 29.83 in 10.0 mi NW 29.9 mph 36.8 mph N/A   Clear
9:51 PM 73.0 °F 19.9 °F 14% 29.69 in 10.0 mi WNW 23.0 mph 34.5 mph N/A   Clear
10:51 PM 71.1 °F 19.9 °F 14% 29.71 in 10.0 mi NNW 19.6 mph 28.8 mph N/A   Clear
11:51 PM 66.9 °F 19.9 °F 17% 29.74 in 10.0 mi North 6.9 mph - N/A   Clear